This demonstration page uses our WeatherBlox Daily Observations layout. Learn more.

38.88101, -77.10428

Hourly Observations for March 5, 2018

Temp ( °F °C ) Dew Point ( °F °C ) Humidity (%) Winds ( mph kmh ) Pressure ( in mb ) Visibility ( mi km ) Precip ( " mm )
12:52 am 00:52 Clear 37 2.8 11 -11.7 34 34 NNW 16 26 30.2 1023 10 16.0934 0 0
1:52 am 01:52 Clear 35 1.7 11 -11.7 37 37 N 16 26 30.2 1023 10 16.0934 0 0
2:52 am 02:52 Clear 34 1.1 11 -11.7 38 38 N 15 24 30.19 1023 10 16.0934 0 0
3:52 am 03:52 Clear 32 0 9 -12.8 38 38 NW 13 20 30.19 1022 10 16.0934 0 0
4:52 am 04:52 Clear 32 0 10 -12.2 40 40 NW 12 19 30.18 1022 10 16.0934 0 0
5:52 am 05:52 Clear 31 -0.6 11 -11.7 43 43 NW 10 17 30.17 1022 10 16.0934 0 0
6:52 am 06:52 Sunny 31 -0.6 11 -11.7 43 43 NNW 10 17 30.16 1021 10 16.0934 0 0
7:52 am 07:52 Sunny 33 0.6 13 -10.6 43 43 N 13 20 30.16 1021 10 16.0934 0 0
8:52 am 08:52 Sunny 36 2.2 14 -10 40 40 NNW 16 26 30.17 1022 10 16.0934 0 0
9:52 am 09:52 Sunny 39 3.9 15 -9.4 38 38 N 13 20 30.19 1022 10 16.0934 0 0
10:52 am 10:52 Sunny 41 5 16 -8.9 36 36 NW 10 17 30.18 1022 10 16.0934 0 0
11:52 am 11:52 Sunny 44 6.7 17 -8.3 34 34 N 9 15 30.16 1021 10 16.0934 0 0
12:52 pm 12:52 Mostly Sunny 47 8.3 17 -8.3 30 30 NNW 14 22 30.12 1020 10 16.0934 0 0
1:52 pm 13:52 Mostly Sunny 48 8.9 16 -8.9 28 28 N 17 28 30.09 1019 10 16.0934 0 0
2:52 pm 14:52 Mostly Sunny 48 8.9 16 -8.9 28 28 N 13 20 30.08 1019 10 16.0934 0 0
3:52 pm 15:52 Mostly Sunny 49 9.4 16 -8.9 27 27 N 15 24 30.07 1018 10 16.0934 0 0
4:52 pm 16:52 Mostly Sunny 48 8.9 17 -8.3 29 29 N 16 26 30.08 1019 10 16.0934 0 0
5:52 pm 17:52 Mostly Sunny 45 7.2 18 -7.8 34 34 N 12 19 30.09 1019 10 16.0934 0 0
6:52 pm 18:52 Mostly Clear 44 6.7 19 -7.2 37 37 NNE 13 20 30.09 1019 10 16.0934 0 0
7:52 pm 19:52 Mostly Clear 42 5.6 19 -7.2 40 40 N 9 15 30.1 1019 10 16.0934 0 0
8:52 pm 20:52 Mostly Clear 42 5.6 21 -6.1 43 43 NNE 10 17 30.1 1019 10 16.0934 0 0
9:52 pm 21:52 Mostly Clear 41 5 21 -6.1 45 45 NNE 9 15 30.12 1020 10 16.0934 0 0
10:52 pm 22:52 Mostly Clear 40 4.4 22 -5.6 49 49 NNE 8 13 30.13 1020 10 16.0934 0 0
11:52 pm 23:52 Mostly Clear 38 3.3 23 -5 55 55 NE 9 15 30.11 1020 10 16.0934 0 0

Powered by AerisWeather